Regional Weather Roundup
Issued by NWS Charleston, WV

Home | Current Version | Previous Version | Graphics & Text | Print | Product List | Glossary On
Versions: 1 2 3 4 5 6 7 8 9 10 11 12 13 14 15 16 17 18 19 20 21 22 23 24 25 26 27
000
ASUS41 KRLX 191910
RWRRLX
West Virginia Regional Weather Roundup
National Weather Service Charleston WV
300 PM EDT THU OCT 19 2017

Note: "fair" indicates few or no clouds below 12,000 feet with no
significant weather and/or obstructions to visibility.

WVZ003-192000-
Northern Panhandle of West Virginia

CITY           SKY/WX    TMP DP  RH WIND       PRES   REMARKS
WHEELING         N/A     69  47  45 SW15      30.18F
$$

WVZ009-192000-
Northwest West Virginia

CITY           SKY/WX    TMP DP  RH WIND       PRES   REMARKS
PARKERSBURG      N/A     70  46  42 W13       30.24F
$$

WVZ006-192000-
Western West Virginia

CITY           SKY/WX    TMP DP  RH WIND       PRES   REMARKS
HUNTINGTON       N/A     71  45  39 VRB5      30.23F
$$

WVZ015-192000-
West Central West Virginia

CITY           SKY/WX    TMP DP  RH WIND       PRES   REMARKS
CHARLESTON       N/A     72  45  37 SW6       30.23F
$$

WVZ022-031-192000-
North Central West Virginia

CITY           SKY/WX    TMP DP  RH WIND       PRES   REMARKS
CLARKSBURG       N/A     70  42  36 W9        30.21F
MORGANTOWN       N/A     69  40  34 SW12G22   30.21F
$$

WVZ025-035-042-045-192000-
Southern West Virginia

CITY           SKY/WX    TMP DP  RH WIND       PRES   REMARKS
BECKLEY          N/A     69  41  36 SW8       30.28F
LOGAN            N/A     68  43  40 CALM      30.26F
BLUEFIELD        N/A     65  36  34 VRB5      30.29F
LEWISBURG        N/A     69  40  34 W7        30.27F
$$

WVZ047-192000-
Northern Mountains of West Virginia

CITY           SKY/WX    TMP DP  RH WIND       PRES   REMARKS
ELKINS           N/A     70  40  33 VRB6      30.23F
$$

WVZ052-192000-
Eastern Panhandle of West Virginia

CITY           SKY/WX    TMP DP  RH WIND       PRES   REMARKS
MARTINSBURG      N/A     73  44  35 VRB6      30.15F
PETERSBURG       N/A     76  37  24 CALM      30.17F
$$




USA.gov is the U.S. government's official web portal to all federal, state and local government web resources and services.